Flag for Isle of Man Weather past 2 weeks in Douglas, Isle of Man

Now
50 °F

Partly sunny.


Feels Like: 44 °F
Forecast: 40 / 51 °F
Wind: 17 mph from Northeast

Location: Isle Of Man / Ronaldsway Airport

Current Time: Apr 19, 2015 at 2:27:24 PM

Latest Report: Apr 19, 2015 at 1:50 PM


Visibility: N/A

Pressure: 30.36 "Hg

Humidity: 58%

Dew point: 36 °F

Location of DouglasLocation

Historic Weather in Douglas — Graph

°F

Douglas temperature yesterday

Maximum temperature yesterday: 55 °F (at 5:50 PM)
Minimum temperature yesterday: 43 °F (at 2:50 AM)
Average temperature yesterday: 48 °F

Past Weeks' High & Low Weather Summary

 TemperatureHumidityPressure
High57 °F (Apr 7, 1:20 PM)100% (Apr 5, 2:50 AM)30.63 "Hg (Apr 5, 2:50 AM)
Low36 °F (Apr 13, 3:50 AM)50% (Apr 19, 11:20 AM)29.68 "Hg (Apr 10, 11:50 PM)
Average47 °F82%30.23 "Hg
* Reported Apr 4 1:20 PM — Apr 19 1:20 PM, Douglas, Weather by CustomWeather, © 2015

Note: Actual official high and low records may vary slightly from our data, if they occured in-between our weather recording intervals... More about our weather records

Advertising

Douglas weather history for previous 24 hours

 ConditionsComfort  
Time TempWeatherWind HumidityBarometerVisibility
1:20 PM
Sun, Apr 19
54 °FPartly sunny.22 mph51%30.33 "HgN/A
12:50 PM52 °FScattered clouds.16 mph54%30.36 "HgN/A
12:20 PM54 °FPartly sunny.14 mph51%30.36 "HgN/A
11:50 AM52 °FPartly sunny.12 mph50%30.36 "HgN/A
11:20 AM52 °FPartly sunny.15 mph50%30.36 "HgN/A
10:50 AM50 °FScattered clouds.12 mph58%30.36 "HgN/A
10:20 AM46 °FPartly sunny.10 mph87%30.39 "HgN/A
9:50 AM46 °FPartly sunny.12 mph62%30.39 "HgN/A
9:20 AM46 °FPartly sunny.9 mph71%30.39 "HgN/A
8:50 AM46 °FScattered clouds.12 mph71%30.39 "HgN/A
8:20 AM45 °FPartly sunny.8 mph76%30.39 "HgN/A
7:50 AM43 °FPartly sunny.13 mph81%30.39 "HgN/A
6:50 AM43 °FPassing clouds.3 mph87%30.39 "HgN/A
6:20 AM43 °FPassing clouds.3 mph87%30.36 "HgN/A
5:50 AM43 °FPassing clouds.2 mph87%30.36 "HgN/A
4:50 AM41 °FPassing clouds.3 mph93%30.39 "HgN/A
3:50 AM41 °FPassing clouds.6 mph87%30.39 "HgN/A
2:50 AM41 °FPassing clouds.5 mph93%30.39 "HgN/A
12:50 AM43 °FPassing clouds.5 mph87%30.42 "HgN/A
11:50 PM
Sat, Apr 18
46 °FClear.10 mph82%30.42 "Hg10 mi
10:50 PM46 °FClear.10 mph82%30.42 "Hg10 mi
9:50 PM46 °FClear.8 mph71%30.39 "Hg10 mi
8:50 PM48 °FSunny.10 mph66%30.39 "Hg10 mi
8:20 PM50 °FSunny.6 mph67%30.39 "Hg10 mi
7:50 PM52 °FPassing clouds.6 mph62%30.39 "HgN/A
7:20 PM54 °FPassing clouds.9 mph58%30.39 "HgN/A
6:50 PM54 °FPassing clouds.12 mph54%30.39 "HgN/A
6:20 PM54 °FSunny.14 mph54%30.39 "Hg10 mi
5:50 PM55 °FPassing clouds.13 mph55%30.39 "HgN/A
5:20 PM54 °FPassing clouds.13 mph51%30.39 "HgN/A
4:50 PM54 °FSunny.17 mph51%30.39 "Hg10 mi
4:20 PM54 °FSunny.14 mph51%30.42 "Hg10 mi
3:50 PM52 °FPassing clouds.13 mph54%30.42 "HgN/A
3:20 PM52 °FSunny.15 mph58%30.42 "Hg10 mi
2:50 PM50 °FSunny.13 mph62%30.45 "Hg10 mi
2:20 PM50 °FSunny.14 mph62%30.45 "Hg10 mi
Weather by CustomWeather, © 2015

See weather overviewHow to use our weather pages